www.pogodaiklimat.ru
ПОГОДА в Аэропорту Морис Бишоп
Время
(UTC), дата
00 26.11
03 26.11
06 26.11
09 26.11
12 26.11
15 26.11
18 26.11
00 27.11
03 27.11
06 27.11
09 27.11
12 27.11
15 27.11
18 27.11
21 27.11
00 28.11
12 28.11
15 28.11
18 28.11
21 28.11
00 29.11
03 29.11
06 29.11
09 29.11
12 29.11
15 29.11
18 29.11
21 29.11
00 30.11
03 30.11
06 30.11
09 30.11
12 30.11
15 30.11
18 30.11
21 30.11
00 1.12
03 1.12
06 1.12
09 1.12
12 1.12
18 1.12
21 1.12
00 2.12
03 2.12
06 2.12
09 2.12
12 2.12
15 2.12
18 2.12
Ветер
(напр.,м/с)
Видим. Явления Облачность Т
(С)
Тd
(С)
f
(%)
Тe
(С)
Тes
(С)
Комфортность P
(гПа)
Po
(гПа)
Тmin
(С)
Tmax
(С)
R
(мм)
R24
(мм)
S
(см)
СВ 5 15 км пыль {ливн. дождь} 9/6 570 м
[Cu Sc Ac trans Ci sp]
+26.3 +23.4 84 +36 +36 очень
душно
1012.5 1011.5 +23.4 +30.7 0.1
В 5 15 км пыль {ливн. дождь} 9/9 570 м
[Cu Sc Ci sp]
+25.1 +23.1 89 +34 +34 очень
душно
1012.9 1011.9
СВ 8 17 км пыль {ливн. дождь} 9/8 570 м
[Cu Sc Ci sp]
+25.4 +22.2 82 +33 +33 очень
душно
1011.0 1010.0 +23.4 +30.7 0.1
штиль 0 17 км пыль 4/3 540 м
[Cu Sc Ci sp]
+25.1 +23.4 90 +34 +34 очень
душно
1010.7 1009.7
В 9 17 км пыль 8/6 540 м
[Cu Sc Ac trans Ci sp]
+28.6 +24.1 77 +40 +40 очень
душно
1012.5 1011.5 +24.8 +30.7 0.2
В 13 15 км пыль 9/9 540 м
[Cu Sc Ac trans Ci fib]
+29.9 +24.3 72 +42 +42 опасность
перегрева
1012.6 1011.6
В 15 13 км осадки на расстоянии 9/9 420 м
[Cb cap Ci fib]
+30.1 +23.9 69 +41 +41 опасность
перегрева
1010.0 1009.0 +24.8 +30.7
В 12 12 км в посл. час дождь {ливн. дождь} 9/9 450 м
[Sc diur, vesp Ac lent Ci fib]
+25.1 +23.4 90 +34 +34 очень
душно
1011.7 1010.7 +24.8 +30.7 6
В 10 18 км пыль {дождь} 6/4 500 м
[Cu Sc Ac trans Ci fib]
+25.5 +22.8 85 +34 +34 очень
душно
1011.3 1010.3
В 11 18 км пыль {ливн. дождь, дождь} 6/5 540 м
[Cu Sc Ac lent Ci fib]
+25.8 +23.9 89 +35 +35 очень
душно
1010.5 1009.5 +24.9 +30.7
штиль 0 16 км пыль 3/3 500 м
[Cu Sc Ci fib]
+25.5 +23.4 88 +34 +34 очень
душно
1010.2 1009.2
СВ 5 18 км пыль 8/4 420 м
[Cb cap Ac lent Ci fib]
+28.4 +23.6 75 +39 +39 очень
душно
1012.1 1011.1 +25.0 +30.7 5.9
В 12 18 км пыль 6/5 500 м
[Cu Sc Ci ing]
+29.6 +24.6 75 +42 +42 опасность
перегрева
1012.6 1011.6
В 15 18 км слаб. ливневой дождь 8/8 500 м
[Cu Sc Ci sp]
+28.4 +25.0 82 +41 +41 опасность
перегрева
1010.3 1009.3 +25.0 +30.5 0.0
В 8 23 км пыль {ливн. дождь} 8/4 420 м
[Cb cap Ac trans Ci ing]
+27.9 +24.3 81 +39 +39 очень
душно
1010.0 1009.0
В 6 23 км пыль {ливн. дождь} 8/3 500 м
[Cu Sc Ci sp]
+25.8 +23.3 86 +35 +35 очень
душно
1011.3 1010.3 +25.0 +30.5 0.0
В 10 1900 м пыль {ливн. дождь} 8/5 450 м
[Cb cap Ac trans Ci ing]
+27.1 +24.9 88 +39 +39 очень
душно
1012.5 1011.5 +24.7 +30.5 0.7 0.9
В 14 25 км 6/3 540 м
[Cu Sc Ac trans Ci sp]
+29.1 +24.9 78 +42 +42 опасность
перегрева
1013.5 1012.5
В 16 24 км осадки на расстоянии 9/3 540 м
[Cu Sc Ci sp]
+29.5 +25.2 78 +43 +43 опасность
перегрева
1011.4 1010.4 +24.7 +29.8
В 11 24 км пыль 8/3 420 м
[Cb cap Ac lent Ci sp]
+28.9 +24.4 77 +41 +41 опасность
перегрева
1011.1 1010.1
В 10 23 км пыль 6/1 570 м
[Cu Sc Ci sp]
+26.8 +24.8 89 +38 +38 очень
душно
1012.6 1011.6 +24.7 +29.9
В 12 23 км пыль 4/3 570 м
[Cu Sc Ci fib]
+26.7 +24.5 88 +38 +38 очень
душно
1013.5 1012.5
В 9 20 км пыль 5/4 500 м
[Cu Sc Ci fib]
+26.4 +24.8 91 +38 +38 очень
душно
1012.6 1011.6 +24.7 +29.9
В 91 20 км пыль 5/3 500 м
[Cu Sc Ac trans Ci fib]
+26.2 +24.6 91 +37 +37 очень
душно
1012.2 1011.2
В 12 18 км пыль 8/8 540 м +28.6 +24.8 80 1013.8 1012.8 +26.1 +29.9
В 1 20 км осадки на расстоянии 8/6 540 м
[Cu Sc Ac trans Ci fib]
+29.3 +25.0 78 +42 +42 опасность
перегрева
1014.9 1013.9
В 15 28 км 9/5 500 м
[Cu Sc Ac trans Ci fib]
+29.7 +24.8 75 +42 +42 опасность
перегрева
1011.9 1010.9 +26.1 +30.5 0.0
В 12 22 км пыль 6/3 500 м
[Cu Sc Ac trans Ci fib]
+28.8 +24.4 77 +40 +40 очень
душно
1011.5 1010.5
В 10 19 км пыль {ливн. дождь} 8/3 500 м
[Cu Sc Ac As Ci fib]
+26.2 +24.1 88 +36 +36 очень
душно
1013.2 1012.2 +26.1 +30.5 1
В 11 20 км слаб. ливневой дождь 8/8 480 м
[Cu Sc Ci fib]
+26.7 +24.6 88 +38 +38 очень
душно
1014.0 1013.0
В 10 17 км слаб. дождь 9/8 500 м
[Cu Sc Ci fib]
+25.4 +24.4 94 +35 +35 очень
душно
1012.1 1011.1 +24.6 +30.5 9
В 11 17 км осадки на расстоянии 9/6 420 м
[Cb cap Ci sp]
+26.5 +23.4 83 +36 +36 очень
душно
1012.1 1011.1
В 18 18 км осадки на расстоянии {ливн. дождь} 6/5 420 м
[Cb cap Ac trans Ci sp]
+27.6 +24.5 83 +39 +39 очень
душно
1014.4 1012.4 +24.5 +30.5 0.0 9.6
В 18 19 км осадки на расстоянии 9/3 420 м
[Cb cap Ci fib]
+29.6 +25.3 78 +43 +43 опасность
перегрева
1014.2 1013.2
В 13 15 км слаб. ливневой дождь 9/9 420 м
[Cb cap Ac trans Ci fib]
+26.2 +24.7 91 +37 +37 очень
душно
1011.8 1010.8 +24.5 +30.1 2
В 11 20 км пыль {ливн. дождь} 8/3 500 м
[Cu Sc Ac trans Ci fib]
+28.0 +25.0 84 +40 +40 очень
душно
1010.9 1009.9
В 6 20 км пыль {ливн. дождь} 5/1 540 м
[Cu Sc Ci fib]
+26.6 +24.4 88 +37 +37 очень
душно
1012.1 1011.1 +24.5 +30.1 0.0
СВ 8 19 км пыль 5/3 500 м
[Cu Sc Ci fib]
+26.6 +24.3 87 +37 +37 очень
душно
1012.7 1011.7
В 10 20 км пыль 4/1 540 м
[Cu med, cong Ci fib]
+26.7 +24.2 86 +37 +37 очень
душно
1011.8 1010.8 +24.5 +30.1
нст 2 19 км осадки на расстоянии 5/5 480 м
[Cu Sc Ac trans Ci fib]
+26.2 +23.7 86 +36 +36 очень
душно
1011.7 1010.7
В 7 14 км пыльный позёмок {снег} 9/9 500 м
[Sc diur, vesp]
+27.5 +24.2 82 +38 +38 очень
душно
1013.7 1012.7 +26.0 +30.1
В 14 22 км пыль {ливн. дождь} 3/3 570 м
[Cu Sc]
+29.9 +24.7 74 +43 +43 опасность
перегрева
1011.6 1010.6 +24.3 +29.9 7
В 10 22 км пыль 1/1 630 м
[Cu med, cong]
+28.8 +24.0 75 +40 +40 очень
душно
1010.4 1009.4
В 3 22 км пыль 1/1 600 м
[Cu Sc Ci fib]
+25.7 +22.9 85 +34 +34 очень
душно
1011.9 1010.9 +25.7 +30.6
В 5 22 км пыль 3/3 600 м
[Sc diur, vesp Ci fib]
+25.5 +23.4 88 +34 +34 очень
душно
1013.2 1012.2
СВ 5 20 км пыль 5/3 570 м
[Cu Sc Ci fib]
+26.0 +22.8 83 +35 +35 очень
душно
1012.1 1011.1 +24.3 +30.6
штиль 0 18 км пыль 8/8 540 м
[Cu Sc Ci fib]
+24.5 +22.4 88 +32 +32 очень
душно
1011.9 1010.9
штиль 0 15 км осадки на расстоянии {ливн. дождь} 5/4 540 м
[Cu Sc Ci fib]
+26.5 +22.7 80 +35 +37 очень
душно
1014.0 1013.0 +24.4 +30.6 0.0 7.2
В 18 24 км пыль 5/4 540 м
[Cu Sc Ci fib]
+29.8 +23.8 70 +41 +41 опасность
перегрева
1014.3 1013.3
В 8 24 км слаб. ливневой дождь 6/6 540 м
[Cu Sc Ci fib]
+28.5 +23.2 73 +38 +39 очень
душно
1011.6 1010.6 +24.4 +30.8 0.0
Местоположение метеостанции Аэропорт Морис Бишоп (Гренада): широта 12.00 долгота -61.78 высота над уровнем моря 7 м.
В архиве по умолчанию представлена погода в Аэропорту Морис Бишоп за последнюю неделю. Архивные данные за месяц целиком и за предыдущие месяцы, начиная с января 2011 года, Вы можете получить, выбрав интересующий диапазон дат из раскрывающегося списка и нажав кнопку "Найти!".
*Определитесь, кто Вы:
Внимание! Время в таблицах - всемирное. Для получения местного времени необходимо прибавить поправку, которая равна -4 ч.
Смотрите также архив погоды в соседних городах и на ближайших метеорологических станциях:
Партнеры нашего сайта:      
Пояснения к столбцам:
  • Ветер - указаны скорость ветра в м/с - средняя за 10 мин, порывы в срок и между сроками (в фигурных скобках) и направление, откуда дует ветер: С - северный,
  • СВ - северо-восточный, В - восточный, ЮВ - юго-восточный, Ю - южный, ЮЗ - юго-западный, З - западный, СЗ - северо-западный.
  • Видимость - горизонтальная дальность видимости в метрах или километрах. При видимости от 1 до 10 км при отсутствии осадков обычно наблюдается дымка, при ухудшении видимости до 1 км и менее - туман. В сухую погоду видимость может ухудшаться дымом, пылью или мглою.
  • Явления - указаны атмосферные явления, наблюдавшиеся в срок или в последний час перед сроком; фигурными скобками обозначены явления, наблюдавшиеся между сроками (за 1-3 часа до срока); квадратными скобками обозначены град или гололедные отложения с указанием их диаметра в мм.
  • Облачность - указаны через наклонную черту общая и нижняя облачность в баллах и высота нижней границы облаков в метрах; квадратными скобками обозначены формы облаков: Ci - перистые, Cs - перисто-слоистые, Cc - перисто-кучевые, Ac - высококучевые, As - высокослоистые, Sc - слоисто-кучевые, Ns - слоисто-дождевые, Cu - кучевые, Cb - кучево-дождевые. Подробнее классификацию облаков см. в Атласе облаков (PDF).
  • T - Температура воздуха - температура, измеренная на высоте 2 м над землей.
  • Td - Температура точки росы - температура, при понижении до которой содержащийся в воздухе водяной пар достигнет насыщения.
  • f - Относительная влажность воздуха - влажноcть воздуха, измеренная на высоте 2 м над землей.
  • Te - Эффективная температура - температура, которую ощущает одетый по сезону человек в тени. Характеристика душности погоды. При расчете учитывается влияние влажности воздуха и скорости ветра на теплоощущения человека.
  • Tes - Эффективная температура на солнце - температура, которую ощущает человек, с поправкой на солнечный нагрев. Характеристика знойности погоды. Зависит от высоты солнца над горизонтом, облачности и скорости ветра. Ночью, в пасмурную погоду, а также при ветре 12 м/с и более поправка равна нулю.
  • P - Атмосферное давление - приведенное к уровню моря атмосферное давление.
  • Po - Атмосферное давление - измеренное на уровне метеостанции атмосферное давление.
  • Tmin - Минимальная температура - минимум температуры воздуха на высоте 2 м над землей.
  • Tmax - Максимальная температура - максимум температуры воздуха на высоте 2 м над землей.
  • R - Количество осадков - Количество выпавших осадков за период времени, мм. При наведении курсора мыши на число - период времени, за который выпало указанное количество осадков.
  • R24 - Количество осадков - Количество выпавших осадков за 24 часа, мм.
  • S - Снежный покров - Высота снежного покрова, см. При наведении курсора мыши на число - состояние снежного покрова и степень покрытия местности в баллах.